Home   Weather   Aliso Viejo   Past weeks

Flag for USA Past Weather in Aliso Viejo, California, USA — Yesterday and Last 2 Weeks

Now
81 °F

Sunny.


Feels Like: 79 °F
Forecast: 56 / 80 °F
Wind: 9 mph from West

Location: John Wayne Airport-Orange County Airport

Current Time: Apr 29, 2017 at 6:39:54 pm

Latest Report: Apr 29, 2017 at 5:53 pm


Visibility: 10 mi

Pressure: 29.95 "Hg

Humidity: 12%

Dew Point: 24 °F

Location of Aliso ViejoLocation

Past Weather in Aliso Viejo — Graph

°F

Aliso Viejo Temperature Yesterday

Maximum temperature yesterday: 76 °F (at 3:53 pm)
Minimum temperature yesterday: 59 °F (at 5:53 am)
Average temperature yesterday: 68 °F

High & Low Weather Summary for the Past Weeks

 TemperatureHumidityPressure
High88 °F (Apr 29, 2:53 pm)97% (Apr 18, 11:07 pm)30.14 "Hg (Apr 18, 11:07 pm)
Low52 °F (Apr 15, 5:53 am)6% (Apr 29, 1:53 pm)29.72 "Hg (Apr 28, 4:53 pm)
Average66 °F65%29.93 "Hg
* Reported Apr 14 4:53 pm — Apr 29 4:53 pm, Aliso Viejo, Weather by CustomWeather, © 2017

Note: Actual official high and low records may vary slightly from our data, if they occured in-between our weather recording intervals... More about our weather records

Advertising

Aliso Viejo Weather History for the Previous 24 Hours

Scroll right to see more
 ConditionsComfort  
Time TempWeatherWind HumidityBarometerVisibility
4:53 pm
Sat, Apr 29
81 °FSunny.12 mph12%29.94 "Hg10 mi
3:53 pm83 °FSunny.13 mph10%29.94 "Hg10 mi
2:53 pm88 °FSunny.8 mph7%29.95 "Hg10 mi
1:53 pm87 °FSunny.15 mph6%29.96 "Hg10 mi
12:53 pm86 °FSunny.16 mph7%29.98 "Hg10 mi
11:53 am83 °FSunny.21 mph7%29.99 "Hg10 mi
10:53 am82 °FSunny.22 mph9%29.98 "Hg10 mi
9:53 am78 °FSunny.18 mph8%29.98 "Hg10 mi
8:53 am75 °FSunny.14 mph10%29.98 "Hg10 mi
7:53 am72 °FSunny.17 mph12%29.96 "Hg10 mi
6:53 am70 °FSunny.16 mph11%29.94 "Hg10 mi
5:53 am70 °FClear.16 mph11%29.91 "Hg10 mi
4:53 am71 °FClear.17 mph10%29.90 "Hg10 mi
3:53 am71 °FClear.17 mph11%29.88 "Hg10 mi
2:53 am73 °FClear.20 mph10%29.87 "Hg10 mi
1:53 am74 °FClear.17 mph9%29.85 "Hg10 mi
12:53 am75 °FClear.14 mph9%29.84 "Hg10 mi
11:53 pm
Fri, Apr 28
69 °FClear.No wind36%29.82 "Hg10 mi
10:53 pm70 °FClear.No wind35%29.79 "Hg10 mi
9:53 pm70 °FPassing clouds.No wind41%29.78 "Hg9 mi
8:53 pm69 °FPassing clouds.8 mph41%29.76 "Hg10 mi
7:53 pm71 °FPassing clouds.6 mph41%29.74 "Hg10 mi
6:53 pm73 °FPartly sunny.9 mph41%29.72 "Hg10 mi
Weather by CustomWeather, © 2017

See weather overviewHow to use our weather pages